Regional Weather Roundup
Issued by NWS New Orleans/Baton Rouge, LA

Home | Current Version | Previous Version | Graphics & Text | Print | Product List | Glossary On
Versions: 1 2 3 4 5 6 7 8 9 10 11 12 13 14 15 16 17 18 19 20 21 22 23 24 25 26 27 28 29 30 31 32 33 34 35 36 37 38 39 40 41 42 43 44 45 46 47 48 49 50
923
ASUS44 KLIX 231805
RWRLIX
NEW ORLEANS REGIONAL WEATHER ROUNDUP
NATIONAL WEATHER SERVICE NEW ORLEANS LA
100 PM CDT WED APR 23 2014

NOTE: "FAIR" INDICATES FEW OR NO CLOUDS BELOW 12,000 FEET WITH NO
      SIGNIFICANT WEATHER AND/OR OBSTRUCTIONS TO VISIBILITY.
      SKY/WX - SKY CONDITION AND SIGNIFICANT WEATHER.
      TMP - AIR TEMPERATURE.     DP    - DEWPOINT TEMPERATURE.
      RH  - RELATIVE HUMIDITY.   PRES  - PRESSURE.
      HI  - HEAT INDEX.          WCI   - WIND CHILL INDEX.

*  THESE STATIONS ARE NOT NWS OR FAA STATIONS AND ARE NOT UNDER
   NWS QUALITY CONTROL.

LAZ038-040-048-061>063-065>067-069-231900-
SOUTHEAST LOUISIANA

CITY           SKY/WX    TMP DP  RH WIND       PRES   REMARKS
N.O. AUDUBON     N/A     84  60  44 MISG        N/A
6HR MIN TEMP:  61; 6HR MAX TEMP:  84;

N.O. INTL ARPT   N/A     81  62  52 N8        29.96F
6HR MIN TEMP:  62; 6HR MAX TEMP:  82;

N.O. LAKEFRONT   N/A     75  66  73 NW8       29.97F
6HR MIN TEMP:  68; 6HR MAX TEMP:  75;

N.O. DOWNTOWN*   N/A     79  57  47 NE5       29.97F
6HR MIN TEMP:  66; 6HR MAX TEMP:  81;

SLIDELL        PTSUNNY   79  60  52 VRB5      29.95F
6HR MIN TEMP:  57; 6HR MAX TEMP:  82;

BATON ROUGE      N/A     83  55  38 VRB6      29.97F
6HR MIN TEMP:  59; 6HR MAX TEMP:  84;

BOOTHVILLE       N/A     77  65  66 NE3       29.98F
6HR MIN TEMP:  64; 6HR MAX TEMP:  77;

BELLE CHASSE   PTSUNNY   82  58  43 CALM      29.95F
6HR MIN TEMP:  57; 6HR MAX TEMP:  82;

BOGALUSA*        N/A     83  54  37 CALM      29.97F
6HR MIN TEMP:  57; 6HR MAX TEMP:  83;

GALLIANO*      NOT AVBL
NEW ROADS*       N/A     80  55  42 CALM      29.97F
6HR MIN TEMP:  56; 6HR MAX TEMP:  80;

GONZALES*      NOT AVBL
HAMMOND*         N/A     84  52  32 N3        29.97F
HOUMA*         SUNNY     82  55  39 NW3       29.97F
PORT FOURCHON* MOCLDY    75  64  69 CALM      29.99F

$$

MSZ070-080>082-231900-
SOUTHERN MISSISSIPPI

CITY           SKY/WX    TMP DP  RH WIND       PRES   REMARKS
MCCOMB           N/A     79  51  37 CALM      29.97F
6HR MIN TEMP:  62; 6HR MAX TEMP:  79;

GULFPORT       PTSUNNY   79  64  60 S9        29.95F
6HR MIN TEMP:  64; 6HR MAX TEMP:  82;

BILOXI           N/A     76  67  72 S12       29.95F
6HR MIN TEMP:  63; 6HR MAX TEMP:  79;

PASCAGOULA     PTSUNNY   79  66  64 S8        29.95F
6HR MIN TEMP:  60; 6HR MAX TEMP:  81;

STENNIS ARPT*  MOSUNNY   82  54  36 CALM      29.95F

$$

COASTAL OBSERVATIONS
LAKE AND NEARSHORE STATIONS

STATION/POSITION TIME  TEMP    WIND        PRES    WAVE
                       AIR SEA DIR/SP/G            HT/PER
                 (UTC) (F)     (DEG/KT/KT) (MB)    (FT/S)
PASCAGOULA       1800   73     190/  8/ 11 1014.0
WAVELAND YACHT   1800   71 72  170/ 10/ 12 1013.7
GRAND ISLE       1800   75 71  120/  4/  6 1015.6
SOUTHWEST PASS   1800   77 60  330/  4/  5 1015.4
NEW CANAL        1800   72 70  340/  4/  6 1015.4
SHELL BEACH      1800   71 68  350/  4/  4 1014.7

OFFSHORE STATIONS

STATION/POSITION TIME  TEMP    WIND        PRES    WAVE
                       AIR SEA DIR/SP/G            HT/PER
                 (UTC) (F)     (DEG/KT/KT) (MB)    (FT/S)
64 S DAUPHIN ISL 1703   68 71   10/  6/  6 1014.8

$$




USA.gov is the U.S. government's official web portal to all federal, state and local government web resources and services.